This is the latest recevied weather packets stored in our database for station/object KC3ELT-10. If no packets are shown the sender has not sent any weather packets the latest 10 day(s).
| Time | Temp. | Humidity | Pressure | Rain* | Wind** | Luminosity | Snow |
|---|---|---|---|---|---|---|---|
| 1777659179 | 13.89° C | 49% | 1006.6 hPa | 0 mm | 1.79 m/s, 5° | - | - |
| 1777658879 | 13.89° C | 49% | 1006.6 hPa | 0 mm | 1.34 m/s, 354° | - | - |
| 1777658579 | 13.33° C | 55% | 1006.6 hPa | 0 mm | 0.89 m/s, 330° | - | - |
| 1777658279 | 12.78° C | 51% | 1006.6 hPa | 0 mm | 0 m/s | - | - |
| 1777657979 | 13.33° C | 49% | 1006.6 hPa | 0 mm | 1.34 m/s, 224° | - | - |
| 1777657679 | 13.33° C | 54% | 1006.6 hPa | 0 mm | 3.13 m/s, 289° | - | - |
| 1777657379 | 13.33° C | 54% | 1006.7 hPa | 0 mm | 0.89 m/s, 326° | - | - |
| 1777657079 | 13.33° C | 54% | 1006.7 hPa | 0 mm | 0.45 m/s, 141° | - | - |
| 1777656778 | 12.78° C | 53% | 1006.7 hPa | 0 mm | 0.89 m/s, 39° | - | - |
| 1777656478 | 12.78° C | 52% | 1006.8 hPa | 0 mm | 0.45 m/s, 293° | - | - |
| 1777656179 | 12.78° C | 51% | 1006.8 hPa | 0 mm | 0 m/s | - | - |
| 1777655879 | 13.33° C | 55% | 1006.8 hPa | 0 mm | 1.34 m/s, 278° | - | - |
| 1777655579 | 12.78° C | 53% | 1006.8 hPa | 0 mm | 2.24 m/s, 280° | - | - |
| 1777655279 | 12.78° C | 53% | 1006.8 hPa | 0 mm | 1.79 m/s, 299° | - | - |
| 1777654979 | 12.78° C | 54% | 1006.8 hPa | 0 mm | 0.89 m/s, 226° | - | - |
| 1777654679 | 12.78° C | 52% | 1007.1 hPa | 0 mm | 0.45 m/s, 39° | - | - |
| 1777654379 | 12.78° C | 54% | 1007.1 hPa | 0 mm | 1.34 m/s, 339° | - | - |
| 1777654079 | 12.22° C | 54% | 1007.1 hPa | 0 mm | 0.89 m/s, 316° | - | - |
| 1777653779 | 12.22° C | 53% | 1007.2 hPa | 0 mm | 0.89 m/s, 294° | - | - |
| 1777653479 | 12.22° C | 55% | 1007.2 hPa | 0 mm | 1.79 m/s, 269° | - | - |
| 1777653179 | 11.67° C | 57% | 1007.2 hPa | 0 mm | 1.34 m/s, 9° | - | - |
| 1777652879 | 11.67° C | 56% | 1007.4 hPa | 0 mm | 2.24 m/s, 290° | - | - |
| 1777652578 | 12.22° C | 56% | 1007.4 hPa | 0 mm | 0.89 m/s, 37° | - | - |
| 1777652279 | 12.22° C | 61% | 1007.4 hPa | 0 mm | 2.68 m/s, 0° | - | - |
| 1777651979 | 11.67° C | 59% | 1007.6 hPa | 0 mm | 1.79 m/s, 352° | - | - |
* Rain latest hour (hover to see other rain measurements)
** Current wind speed in m/s (hover to see current wind gust speed)